sat.trackr.live / text

‹ back to catalog

STARLINK-33616

NORAD 63385 · 2025-063Y

PAYLOAD ACTIVE UNKNOWN

§ Identity

Operator
Country
US
Launch date
2025-03-26
Launch site
AFWTR
Launch vehicle
Mass (kg)
RCS (m²)

Purposes: comms

External: N2YO · Heavens-Above · Gunter

§ Orbital elements

Epoch: 2026-05-25T03:14:08.886048Z

Period
94.10 min
Inclination
53.1578°
Eccentricity
0.0001034
Mean motion
15.30217087 rev/d
Perigee alt
474.5 km
Apogee alt
475.9 km
Semi-major
6,853.3 km
B*
6.5679e-4
RAAN
68.0275°
Arg perigee
88.2387°
Mean anomaly
271.8732°
Rev number
6,626

§ Raw data

STARLINK-336161 63385U 25063Y   26145.13482507  .00019154  00000+0  65679-3 0  99942 63385  53.1578  68.0275 0001034  88.2387 271.8732 15.30217087 66262

JSON: /api/v1/satellites/63385 · /tle

For live sub-satellite position, see the globe view (requires WebGL).

§ Visibility from observer

Set your observer location to see the next 7 days of passes ≥ 10°. The values pass through the URL so the page stays shareable.

No JS? Fill the form by hand. The geolocation button needs JavaScript.